STARLINK-32419, 61637

Orbit data source: Space-Track

STARLINK-32419, 61637 is a payload satellite owned by SpaceX/Seattle (US) in LEO that was launched on Wed, 23 Oct 2024 UTC via an FALCON 9 launch vehicle from the Air Force Eastern Test Range (AFETR). Payload-class satellites include a variety of spacecraft equipped with specific instruments for various scientific and technological missions. These include communications satellites like Starlink; space stations such as the ISS; scientific satellites like the Hubble; Earth observation satellites from companies like Planet Labs, Umbra, and HawkEye 360; GPS; miniature CubeSats for education and research; and military/defense satellites.

Loading next visibility...
Identifier
61637, 2024-191S
Orbit
LEO
Country
Flag of USUS
Related business
Manufacturer
SpaceX/Seattle
Mission
Operational Commercial Communications
Bus & Motor
STARLINK V2M, Unknown motor
Mass
730 kg wet, ~700 kg dry
Launch date (UTC)
2024-10-23 (11 months ago)
Launch vehicle
FALCON 9
Launch site
Air Force Eastern Test Range (AFETR)
Object type
Payload
Rocket body
Debris
Shape & HBR
Box + 2 Pan, 14.5 m
Radar Cross Section
36.964 m², Large (>1 m²)

Expand to show TLE details & history
Last TLE update: 22 hours ago

TLE from 22 hours ago
0 STARLINK-32419
1 61637U 24191S   25257.46754262 -.00002992  00000-0 -99240-4 0  9999
2 61637  43.0052  69.8711 0001406 271.8993  88.1698 15.27576612 50581
Epoch: 2025-09-14T11:13Z
TLE epoch observation values (Epoch: 2025-09-14T11:13:15.682Z)
Latitude
0.00001°
Longitude
-92.13036°
Altitude
482.805 km
Speed
7.626 km/s
True Right ascension
04h 39m 29s
True Declination
0° 00' 00"
Sunlit
Object was in daylight at epoch
Visualization orbit readout
Latitude
Unknown
Longitude
Unknown
Altitude
Unknown
Speed
Unknown
Apparent Right ascension
Unknown
Apparent Declination
Unknown
Sunlit
N/A
Visualization observer readout
Local Sidereal Time
02:17:13
Azimuth
Unknown
Elevation
Unknown
Doppler factor
Unknown
Orbital elements
Apogee altitude
485.968 km
Perigee altitude
484.039 km
Semi-major axis
6,863.141 km
Eccentricity
0.00014
Inclination
43.0052°
RAAN
69.8711°
Arg. of periapsis
271.8993°
True anomaly
88.1859°
Mean anomaly
88.1698°
Eccentric anomaly
88.17785°
Mean motion
3.81732 °/min
Orbital period
94.31 mins
BSTAR
-0.00009924
Loading maneuver chart data...
Computing Atmospheric mass density...
Loading historical data...
Loading historical data...
Loading historical data...
Loading historical data...
Loading historical data...
Loading historical data...
Loading historical data...

Documentation

Showing up to 5 results
|